This is the latest recevied weather packets stored in our database for station/object KD8JAM. If no packets are shown the sender has not sent any weather packets the latest 10 day(s).
| Time | Temp. | Humidity | Pressure | Rain* | Wind** | Luminosity | Snow |
|---|---|---|---|---|---|---|---|
| 1777859877 | 10° C | 43% | 1002.2 hPa | 0 mm | - | 0 W/m² | - |
| 1777859574 | 10° C | 42% | 1002.2 hPa | 0 mm | - | 0 W/m² | - |
| 1777859270 | 10° C | 43% | 1001.9 hPa | 0 mm | - | 0 W/m² | - |
| 1777858966 | 10° C | 43% | 1001.9 hPa | 0 mm | - | 0 W/m² | - |
| 1777858664 | 10° C | 43% | 1002 hPa | 0 mm | - | 0 W/m² | - |
| 1777858362 | 10° C | 44% | 1002.3 hPa | 0 mm | - | 0 W/m² | - |
| 1777858058 | 10° C | 45% | 1002.2 hPa | 0 mm | - | 0 W/m² | - |
| 1777857756 | 10° C | 43% | 1002.2 hPa | 0 mm | - | 0 W/m² | - |
| 1777857452 | 10° C | 44% | 1002.4 hPa | 0 mm | - | 0 W/m² | - |
| 1777857149 | 10° C | 45% | 1002.4 hPa | 0 mm | - | 0 W/m² | - |
| 1777856845 | 10° C | 45% | 1002.5 hPa | 0 mm | - | 1 W/m² | - |
| 1777856541 | 10° C | 45% | 1002.6 hPa | 0 mm | - | 3 W/m² | - |
| 1777856238 | 10° C | 45% | 1002.6 hPa | 0 mm | - | 5 W/m² | - |
| 1777855935 | 10° C | 46% | 1002.4 hPa | 0 mm | - | 8 W/m² | - |
| 1777855633 | 10° C | 45% | 1002.3 hPa | 0 mm | - | 10 W/m² | - |
| 1777855330 | 10.56° C | 46% | 1002.4 hPa | 0 mm | - | 12 W/m² | - |
| 1777855026 | 10.56° C | 46% | 1002.5 hPa | 0 mm | - | 14 W/m² | - |
| 1777854723 | 10.56° C | 46% | 1002.4 hPa | 0 mm | - | 16 W/m² | - |
| 1777854420 | 10.56° C | 46% | 1002.3 hPa | 0 mm | - | 18 W/m² | - |
| 1777854117 | 10.56° C | 46% | 1002.6 hPa | 0 mm | - | 22 W/m² | - |
| 1777853815 | 11.11° C | 46% | 1002.3 hPa | 0 mm | - | 26 W/m² | - |
| 1777853511 | 11.11° C | 46% | 1002.6 hPa | 0 mm | - | 30 W/m² | - |
| 1777853208 | 11.67° C | 45% | 1002.5 hPa | 0 mm | - | 33 W/m² | - |
| 1777852905 | 11.67° C | 44% | 1002.5 hPa | 0 mm | - | 35 W/m² | - |
| 1777852603 | 11.67° C | 44% | 1002.7 hPa | 0 mm | - | 46 W/m² | - |
* Rain latest hour (hover to see other rain measurements)
** Current wind speed in m/s (hover to see current wind gust speed)